COSMOS 2251 DEB, 37108

Orbit data source: Space-Track

COSMOS 2251 DEB, 37108 is space debris in LEO originally from a launch on Wed, 16 Jun 1993 UTC launched from the Plesetsk Missile And Space Complex (PKMTR). The debris from Iridium 33, an American commercial communications satellite, has been tracked extensively since its accidental collision with the defunct Russian satellite Cosmos 2251 in 2009. This event, occurring at high speed in low Earth orbit (LEO), generated thousands of pieces of space debris, significantly increasing the risk of further collisions. The Iridium 33 debris cloud has impacted space traffic management and orbital debris mitigation strategies, making it a subject of ongoing study in space situational awareness.

Loading next visibility...
Identifier
37108, 1993-036BGE
Orbit
LEO
Country
Flag of CISCIS
Related business
Manufacturer
Unknown
Mission
Spacecraft
Bus & Motor
Unknown
Mass
Unknown
Launch date (UTC)
1993-06-16 (33 years ago)
Launch vehicle
Unknown
Launch site
Plesetsk Missile And Space Complex (PKMTR)
Object type
Payload
Rocket body
Debris
Shape & HBR
Unknown shape, 0.1 m
Radar Cross Section
Small (<0.1 m²)

Expand to show TLE details & history
Last TLE update: 16 hours ago

TLE from 16 hours ago
0 COSMOS 2251 DEB
1 37108U 93036BGE 26037.26825244  .00006731  00000-0  19678-2 0  9991
2 37108  74.0464 337.7367 0090107  39.2664 321.4980 14.41818224863075
Epoch: 2026-02-06T06:26Z
TLE epoch observation values (Epoch: 2026-02-06T06:26:17.010Z)
Latitude
-0.00008°
Longitude
104.75724°
Altitude
705.052 km
Speed
7.53 km/s
True Right ascension
22h 30m 56s
True Declination
0° 00' 00"
Sunlit
Object was in daylight at epoch
Visualization orbit readout
Latitude
Unknown
Longitude
Unknown
Altitude
Unknown
Speed
Unknown
Apparent Right ascension
Unknown
Apparent Declination
Unknown
Sunlit
N/A
Visualization observer readout
Local Sidereal Time
00:49:56
Azimuth
Unknown
Elevation
Unknown
Doppler factor
Unknown
Orbital elements
Apogee altitude
814.344 km
Perigee altitude
685.883 km
Semi-major axis
7,128.251 km
Eccentricity
0.00901
Inclination
74.0464°
RAAN
337.7367°
Arg. of periapsis
39.2664°
True anomaly
320.84949°
Mean anomaly
321.498°
Eccentric anomaly
321.17432°
Mean motion
3.60636 °/min
Orbital period
99.82 mins
BSTAR
0.0019678
Loading maneuver chart data...
Computing Atmospheric mass density...

Documentation

Showing up to 5 results
|